Location: Bismarck
(46.7731°N, 100.8200°W)
Time: 08:00:02
(UTC-05:00)

Amateur Radio Satellites - All Passes

Search period start: 24 July 2014 07:30
Search period end: 25 July 2014 07:30
Location: Bismarck, 46.7731°N, 100.8200°W

Satellite Date Start Highest point End Downlink Frequencies (MHz)
Time Altitude Azimuth
STRAND 1 24 Jul 07:35:13 07:40:23 87° 255° (WSW) 07:45:34 ?
SO-67 24 Jul 07:48:40 07:48:59 10° 89° (E) 07:49:18 435.3500 MHz FM
JAS-1B 24 Jul 08:15:20 08:18:05 12° 329° (NNW) 08:20:48 435.800 - 435.900 CW/SSB
ISS 24 Jul 08:22:06 08:25:26 65° 211° (SSW) 08:28:46 145.800 FM
Hamsat 24 Jul 08:24:02 08:28:09 48° 288° (WNW) 08:32:17 145.90 MHz
MaSat-1 24 Jul 08:40:42 08:46:04 87° 61° (ENE) 08:51:18 437.345 MHz
AO-7 24 Jul 08:44:46 08:50:52 23° 314° (NW) 08:56:57 29.400 - 29.500 MHz
KITSAT 1 24 Jul 08:49:48 08:57:55 87° 123° (ESE) 09:06:04 435.175 FM
JAS-2 24 Jul 08:50:49 08:57:06 57° 292° (WNW) 09:02:38 435.800 - 435.900 CW/SSB, 435.910 FM
STRAND 1 24 Jul 09:18:18 09:20:20 12° 273° (W) 09:22:21 ?
Sapphire 24 Jul 09:18:25 09:20:49 13° 24° (NNE) 09:23:13 437.095 MHz 1200 baud AX-25 AFSK
SO-67 24 Jul 09:19:00 09:22:26 57° 286° (WNW) 09:25:51 435.3500 MHz FM
Saudisat 1A 24 Jul 09:22:51 09:26:23 24° 114° (ESE) 09:29:56 436.775 MHz
HO-68 24 Jul 09:33:02 09:37:57 19° 89° (E) 09:42:50 435.675 MHz FM
PCSat 24 Jul 09:51:52 09:55:37 19° 33° (NNE) 09:59:21 145.825 MHz
ISS 24 Jul 10:00:30 10:01:36 11° 228° (SW) 10:02:42 145.800 FM
UKube-1 24 Jul 10:15:32 10:18:54 21° 93° (E) 10:22:14 145.840 MHz, 145.915 MHz
MaSat-1 24 Jul 10:19:41 10:22:44 16° 260° (W) 10:25:43 437.345 MHz
JAS-2 24 Jul 10:38:27 10:40:37 12° 314° (NW) 10:42:43 435.800 - 435.900 CW/SSB, 435.910 FM
KITSAT 1 24 Jul 10:47:10 10:54:18 33° 327° (NNW) 11:01:28 435.175 FM
Sapphire 24 Jul 11:00:40 11:05:48 41° 47° (NE) 11:10:54 437.095 MHz 1200 baud AX-25 AFSK
Saudisat 1A 24 Jul 11:01:25 11:05:43 49° 313° (NW) 11:10:02 436.775 MHz
Oscar 11 24 Jul 11:05:58 11:10:00 37° 97° (E) 11:14:01 145.825 FM, Beacon 2401.500 USB
FUNcube-1 24 Jul 11:13:41 11:16:25 17° 91° (E) 11:19:08 145.950 - 145.970 MHz USB
HO-68 24 Jul 11:19:22 11:26:33 87° 288° (WNW) 11:33:42 435.675 MHz FM
PCSat 24 Jul 11:34:33 11:40:01 73° 55° (NE) 11:45:25 145.825 MHz
UKube-1 24 Jul 11:51:10 11:55:18 42° 291° (WNW) 11:59:23 145.840 MHz, 145.915 MHz
Oscar 19 24 Jul 12:33:18 12:34:45 11° 53° (NE) 12:36:12 437.125 CW, 437.150 USB
Oscar 11 24 Jul 12:42:31 12:46:01 25° 295° (WNW) 12:49:32 145.825 FM, Beacon 2401.500 USB
Saudisat 1A 24 Jul 12:44:12 12:46:22 13° 335° (NNW) 12:48:31 436.775 MHz
Sapphire 24 Jul 12:44:14 12:49:12 38° 247° (WSW) 12:54:09 437.095 MHz 1200 baud AX-25 AFSK
KITSAT 1 24 Jul 12:47:05 12:52:37 19° 356° (N) 12:58:09 435.175 FM
FUNcube-1 24 Jul 12:49:06 12:53:07 48° 289° (WNW) 12:57:07 145.950 - 145.970 MHz USB
Oscar 16 24 Jul 12:58:19 13:01:50 19° 59° (ENE) 13:05:21 437.025 USB, Beacon 2401.1428
HO-68 24 Jul 13:08:15 13:13:21 22° 309° (NW) 13:18:26 435.675 MHz FM
ITAMSAT 1 24 Jul 13:10:22 13:12:23 12° 53° (NE) 13:14:24 435.822 SSB
PCSat 24 Jul 13:19:05 13:22:51 19° 254° (WSW) 13:26:36 145.825 MHz
AO-27 24 Jul 13:26:42 13:29:58 17° 57° (ENE) 13:33:15 436.795 MHz FM
AO-Echo 24 Jul 13:27:32 13:30:54 17° 58° (ENE) 13:34:17 ?
Uribyol 2 24 Jul 13:29:24 13:32:52 18° 58° (ENE) 13:36:20 436.500 FM
JAS-1B 24 Jul 13:29:37 13:36:27 25° 47° (NE) 13:43:42 435.800 - 435.900 CW/SSB
Oscar 19 24 Jul 14:08:05 14:13:09 67° 72° (ENE) 14:18:14 437.125 CW, 437.150 USB
AO-7 24 Jul 14:14:10 14:17:51 14° 36° (NE) 14:21:32 29.400 - 29.500 MHz
Oscar 16 24 Jul 14:35:34 14:40:40 69° 257° (WSW) 14:45:48 437.025 USB, Beacon 2401.1428
TMSAT-1 24 Jul 14:38:15 14:42:12 22° 60° (ENE) 14:46:09 436.925 FM
SO-50 24 Jul 14:38:50 14:43:00 40° 119° (ESE) 14:47:16 436.795 FM
KITSAT 1 24 Jul 14:44:36 14:51:15 27° 26° (NNE) 14:57:51 435.175 FM
ITAMSAT 1 24 Jul 14:45:47 14:50:58 71° 72° (ENE) 14:56:11 435.822 SSB
RS-15 24 Jul 14:57:57 15:08:30 52° 113° (ESE) 15:18:51 29.354 - 29.394 USB, Beacon 29.352 USB
Gurwin Techsat 1B 24 Jul 14:58:06 15:03:01 40° 67° (ENE) 15:07:58 435.225 FM
AO-27 24 Jul 15:03:37 15:08:51 82° 256° (WSW) 15:14:07 436.795 MHz FM
AO-Echo 24 Jul 15:03:42 15:09:00 83° 256° (WSW) 15:14:23 ?
Uribyol 2 24 Jul 15:06:34 15:11:47 74° 257° (WSW) 15:17:00 436.500 FM
JAS-1B 24 Jul 15:16:38 15:25:21 77° 70° (ENE) 15:35:11 435.800 - 435.900 CW/SSB
Uosat F 24 Jul 15:21:16 15:23:40 14° 55° (NE) 15:26:04 435.120 FM
UOSAT-12 24 Jul 15:30:49 15:32:06 11° 107° (ESE) 15:33:25 437.025 FM, 437.400 FM
Oscar 19 24 Jul 15:49:37 15:52:59 18° 270° (W) 15:56:22 437.125 CW, 437.150 USB
AO-7 24 Jul 16:00:47 16:08:35 46° 59° (ENE) 16:16:23 29.400 - 29.500 MHz
Saudisat 1A 24 Jul 16:07:36 16:09:40 13° 25° (NNE) 16:11:44 436.775 MHz
TMSAT-1 24 Jul 16:16:26 16:21:41 63° 259° (WSW) 16:26:58 436.925 FM
SO-50 24 Jul 16:19:33 16:23:38 33° 319° (NW) 16:27:49 436.795 FM
ITAMSAT 1 24 Jul 16:27:39 16:31:00 17° 270° (W) 16:34:21 435.822 SSB
Gurwin Techsat 1B 24 Jul 16:38:24 16:43:05 31° 265° (W) 16:47:47 435.225 FM
KITSAT 1 24 Jul 16:40:05 16:48:11 70° 51° (NE) 16:56:14 435.175 FM
AO-Echo 24 Jul 16:46:35 16:48:35 12° 274° (W) 16:50:36 ?
AO-27 24 Jul 16:47:33 16:49:11 11° 274° (W) 16:50:50 436.795 MHz FM
Uosat F 24 Jul 16:56:37 17:01:40 82° 74° (ENE) 17:06:45 435.120 FM
UOSAT-12 24 Jul 17:06:49 17:11:26 80° 125° (SE) 17:16:10 437.025 FM, 437.400 FM
JAS-1B 24 Jul 17:09:17 17:16:44 31° 273° (W) 17:25:00 435.800 - 435.900 CW/SSB
RS-15 24 Jul 17:09:57 17:20:48 58° 318° (NW) 17:31:35 29.354 - 29.394 USB, Beacon 29.352 USB
JAS-2 24 Jul 17:20:59 17:26:38 23° 55° (NE) 17:32:01 435.800 - 435.900 CW/SSB, 435.910 FM
OPAL 24 Jul 17:28:01 17:32:47 41° 101° (E) 17:37:35 ?
Hamsat 24 Jul 17:45:34 17:48:32 19° 63° (ENE) 17:51:30 145.90 MHz
Saudisat 1A 24 Jul 17:46:03 17:50:20 47° 47° (NE) 17:54:36 436.775 MHz
AO-7 24 Jul 17:53:18 18:01:19 49° 259° (W) 18:09:24 29.400 - 29.500 MHz
SO-50 24 Jul 18:04:14 18:05:38 11° 342° (NNW) 18:07:03 436.795 FM
KITSAT 1 24 Jul 18:36:10 18:43:00 32° 253° (WSW) 18:49:48 435.175 FM
Uosat F 24 Jul 18:38:32 18:41:06 14° 272° (W) 18:43:40 435.120 FM
UOSAT-12 24 Jul 18:48:31 18:52:10 22° 326° (NW) 18:55:51 437.025 FM, 437.400 FM
JAS-2 24 Jul 19:02:55 19:10:47 86° 74° (ENE) 19:18:15 435.800 - 435.900 CW/SSB, 435.910 FM
OPAL 24 Jul 19:07:12 19:11:32 30° 298° (WNW) 19:15:55 ?
Hamsat 24 Jul 19:20:11 19:24:12 46° 261° (W) 19:28:15 145.90 MHz
Saudisat 1A 24 Jul 19:26:07 19:29:41 24° 245° (WSW) 19:33:14 436.775 MHz
RS-15 24 Jul 19:26:37 19:36:02 31° 350° (N) 19:45:31 29.354 - 29.394 USB, Beacon 29.352 USB
STRAND 1 24 Jul 19:43:32 19:47:45 25° 93° (E) 19:51:56 ?
SO-67 24 Jul 19:54:38 19:58:04 70° 76° (ENE) 20:01:33 435.3500 MHz FM
HO-68 24 Jul 20:05:22 20:10:40 23° 52° (NE) 20:15:59 435.675 MHz FM
JAS-2 24 Jul 20:50:42 20:56:31 23° 272° (W) 21:02:10 435.800 - 435.900 CW/SSB, 435.910 FM
UKube-1 24 Jul 21:13:47 21:17:31 28° 65° (ENE) 21:21:15 145.840 MHz, 145.915 MHz
STRAND 1 24 Jul 21:22:16 21:27:09 46° 292° (WNW) 21:32:00 ?
SO-50 24 Jul 21:27:30 21:30:54 19° 32° (NNE) 21:34:21 436.795 FM
RS-15 24 Jul 21:42:17 21:52:18 38° 25° (NNE) 22:02:29 29.354 - 29.394 USB, Beacon 29.352 USB
HO-68 24 Jul 21:50:21 21:57:33 88° 252° (WSW) 22:04:46 435.675 MHz FM
Oscar 11 24 Jul 22:03:45 22:07:48 42° 70° (ENE) 22:11:52 145.825 FM, Beacon 2401.500 USB
FUNcube-1 24 Jul 22:12:59 22:16:17 22° 64° (ENE) 22:19:32 145.950 - 145.970 MHz USB
UOSAT-12 24 Jul 22:15:24 22:16:32 11° 15° (NNE) 22:17:40 437.025 FM, 437.400 FM
MaSat-1 24 Jul 22:36:22 22:39:23 20° 103° (ESE) 22:42:44 437.345 MHz
UKube-1 24 Jul 22:49:41 22:53:38 33° 263° (W) 22:57:37 145.840 MHz, 145.915 MHz
SO-50 24 Jul 23:07:25 23:12:11 83° 52° (NE) 23:17:00 436.795 FM
Oscar 11 24 Jul 23:40:55 23:44:10 21° 267° (W) 23:47:27 145.825 FM, Beacon 2401.500 USB
HO-68 24 Jul 23:41:35 23:46:13 18° 272° (W) 23:50:53 435.675 MHz FM
FUNcube-1 24 Jul 23:48:17 23:52:27 43° 261° (W) 23:56:33 145.950 - 145.970 MHz USB
UOSAT-12 24 Jul 23:54:08 23:58:16 29° 39° (NE) 00:02:21 437.025 FM, 437.400 FM
RS-15 24 Jul 23:55:14 00:06:18 86° 53° (NE) 00:17:44 29.354 - 29.394 USB, Beacon 29.352 USB
MaSat-1 25 Jul 00:12:15 00:16:16 49° 306° (NW) 00:20:56 437.345 MHz
SO-50 25 Jul 00:49:28 00:52:09 15° 250° (WSW) 00:54:51 436.795 FM
UOSAT-12 25 Jul 01:34:04 01:38:42 54° 239° (WSW) 01:43:15 437.025 FM, 437.400 FM
Lituanica SAT-1 25 Jul 01:34:51 01:36:57 71° 152° (SSE) 01:39:03 437.275 MHz beacon
Sapphire 25 Jul 01:47:12 01:50:48 18° 106° (ESE) 01:54:25 437.095 MHz 1200 baud AX-25 AFSK
MaSat-1 25 Jul 01:53:25 01:54:59 12° 329° (NNW) 01:56:36 437.345 MHz
RS-15 25 Jul 02:08:34 02:17:25 29° 256° (WSW) 02:26:32 29.354 - 29.394 USB, Beacon 29.352 USB
Oscar 19 25 Jul 02:17:39 02:21:17 19° 91° (E) 02:24:54 437.125 CW, 437.150 USB
PCSat 25 Jul 02:19:29 02:24:22 36° 112° (ESE) 02:29:17 145.825 MHz
ISS 25 Jul 02:42:27 02:45:42 50° 147° (SSE) 02:48:59 145.800 FM
Oscar 16 25 Jul 02:44:31 02:49:12 34° 96° (E) 02:53:51 437.025 USB, Beacon 2401.1428
ITAMSAT 1 25 Jul 02:56:40 03:00:27 20° 91° (E) 03:04:12 435.822 SSB
JAS-1B 25 Jul 03:00:52 03:08:15 24° 84° (E) 03:14:57 435.800 - 435.900 CW/SSB
Lituanica SAT-1 25 Jul 03:07:58 03:09:47 23° 350° (N) 03:11:35 437.275 MHz beacon
AO-Echo 25 Jul 03:08:53 03:13:14 27° 93° (E) 03:17:26 ?
OPAL 25 Jul 03:09:38 03:12:38 16° 55° (NE) 03:15:39 ?
Gurwin Techsat 1B 25 Jul 03:13:14 03:15:20 12° 86° (E) 03:17:26 435.225 FM
AO-27 25 Jul 03:14:12 03:18:42 29° 95° (E) 03:23:09 436.795 MHz FM
Uribyol 2 25 Jul 03:16:44 03:21:20 31° 96° (E) 03:25:53 436.500 FM
Sapphire 25 Jul 03:28:12 03:33:37 76° 304° (NW) 03:39:04 437.095 MHz 1200 baud AX-25 AFSK
Oscar 19 25 Jul 03:55:58 04:01:04 63° 289° (WNW) 04:06:09 437.125 CW, 437.150 USB
PCSat 25 Jul 04:02:35 04:07:43 42° 312° (NW) 04:12:53 145.825 MHz
ISS 25 Jul 04:19:15 04:22:29 44° 346° (NNW) 04:25:45 145.800 FM
Oscar 16 25 Jul 04:23:53 04:28:33 36° 294° (WNW) 04:33:13 437.025 USB, Beacon 2401.1428
TMSAT-1 25 Jul 04:29:23 04:34:25 42° 98° (E) 04:39:25 436.925 FM
ITAMSAT 1 25 Jul 04:35:15 04:40:22 59° 289° (WNW) 04:45:26 435.822 SSB
Lituanica SAT-1 25 Jul 04:41:02 04:42:50 23° 10° (N) 04:44:39 437.275 MHz beacon
OPAL 25 Jul 04:45:58 04:50:55 81° 253° (WSW) 04:55:54 ?
AO-Echo 25 Jul 04:47:17 04:52:11 43° 292° (WNW) 04:56:54 ?
JAS-1B 25 Jul 04:50:14 05:00:04 89° 287° (WNW) 05:08:39 435.800 - 435.900 CW/SSB
Gurwin Techsat 1B 25 Jul 04:50:45 04:56:06 85° 104° (ESE) 05:01:25 435.225 FM
AO-27 25 Jul 04:53:28 04:58:21 42° 293° (WNW) 05:03:11 436.795 MHz FM
Uribyol 2 25 Jul 04:56:07 05:00:52 38° 294° (WNW) 05:05:36 436.500 FM
Uosat F 25 Jul 05:02:21 05:06:02 20° 92° (E) 05:09:41 435.120 FM
Sapphire 25 Jul 05:14:10 05:17:58 19° 326° (NNW) 05:21:47 437.095 MHz 1200 baud AX-25 AFSK
Oscar 19 25 Jul 05:38:21 05:39:25 11° 308° (NW) 05:40:29 437.125 CW, 437.150 USB
PCSat 25 Jul 05:50:08 05:52:39 13° 336° (NNW) 05:55:11 145.825 MHz
AO-7 25 Jul 05:51:06 05:59:11 51° 101° (E) 06:07:10 29.400 - 29.500 MHz
ISS 25 Jul 05:56:32 05:59:41 35° 6° (N) 06:02:50 145.800 FM
TMSAT-1 25 Jul 06:09:37 06:14:11 30° 296° (WNW) 06:18:44 436.925 FM
Lituanica SAT-1 25 Jul 06:13:33 06:15:39 70° 208° (SSW) 06:17:44 437.275 MHz beacon
ITAMSAT 1 25 Jul 06:18:14 06:18:48 10° 309° (NW) 06:19:23 435.822 SSB
OPAL 25 Jul 06:29:43 06:30:36 10° 271° (W) 06:31:29 ?
Gurwin Techsat 1B 25 Jul 06:32:09 06:35:24 17° 303° (WNW) 06:38:37 435.225 FM
Uosat F 25 Jul 06:40:15 06:45:11 57° 290° (WNW) 06:50:05 435.120 FM
JAS-1B 25 Jul 06:41:31 06:49:17 29° 309° (NW) 06:56:30 435.800 - 435.900 CW/SSB
MaSat-1 25 Jul 06:50:52 06:54:44 20° 41° (NE) 06:58:35 437.345 MHz
STRAND 1 25 Jul 07:02:02 07:06:59 49° 69° (ENE) 07:11:57 ?
Hamsat 25 Jul 07:03:11 07:06:45 25° 94° (E) 07:10:19 145.90 MHz
KITSAT 1 25 Jul 07:12:28 07:19:16 31° 107° (ESE) 07:26:05 435.175 FM
